Flag for U.S.A. Weather past 2 weeks in Garland, Texas, U.S.A.

Now
91 °F

Scattered clouds.


Feels Like: 93 °F
Forecast: 71 / 90 °F
Wind: 10 mph from Southeast

Location: Mesquite Metro Airport

Current Time: Oct 1, 2014 at 4:59:56 PM

Latest Report: Oct 1, 2014 at 3:55 PM


Visibility: 10 mi

Pressure: 29.76 "Hg

Humidity: 41%

Dew point: 64 °F

Location of GarlandLocation

Historic Weather in Garland — Graph

°F

Garland temperature yesterday

Maximum temperature yesterday: 91 °F (at 2:50 PM)
Minimum temperature yesterday: 64 °F (at 6:50 AM)
Average temperature yesterday: 75 °F

Past Weeks' High & Low Weather Summary

 TemperatureHumidityPressure
High91 °F (Sep 16, 3:57 PM)100% (Sep 17, 7:50 AM)30.21 "Hg (Sep 17, 7:50 AM)
Low55 °F (Sep 24, 7:55 AM)17% (Sep 24, 4:50 PM)29.76 "Hg (Sep 30, 5:52 PM)
Average74 °F67%30.02 "Hg
* Reported Sep 16 3:57 PM — Oct 1 3:55 PM, Garland, Weather by CustomWeather, © 2014

Note: Actual official high and low records may vary slightly from our data, if they occured in-between our weather recording intervals... More about our weather records

Advertising

Garland weather history for previous 24 hours

 ConditionsComfort  
Time TempWeatherWind HumidityBarometerVisibility
3:55 PM
Oct 1
91 °FScattered clouds.10 mph41%29.76 "Hg10 mi
2:55 PM90 °FPartly sunny.13 mph46%29.77 "Hg10 mi
1:55 PM90 °FPartly sunny.13 mph46%29.78 "Hg10 mi
12:50 PM86 °FScattered clouds.N/A52%29.83 "Hg10 mi
11:50 AM84 °FPartly sunny.10 mph58%29.85 "Hg10 mi
10:47 AM81 °FOvercast.13 mph70%29.85 "Hg10 mi
9:47 AM79 °FOvercast.13 mph74%29.84 "Hg10 mi
8:50 AM75 °FOvercast.10 mph89%29.84 "Hg10 mi
7:55 AM73 °FLow clouds.12 mph94%29.83 "Hg7 mi
6:55 AM73 °FLow clouds.12 mph94%29.81 "Hg10 mi
5:35 AM71 °FClear.5 mph92%29.81 "Hg10 mi
5:15 AM72 °FClear.6 mph92%29.81 "Hg10 mi
4:55 AM72 °FClear.5 mph92%29.81 "Hg10 mi
4:35 AM72 °FClear.5 mph91%29.81 "Hg10 mi
4:15 AM72 °FClear.6 mph90%29.80 "Hg10 mi
3:55 AM72 °FClear.6 mph89%29.80 "Hg10 mi
3:35 AM72 °FClear.7 mph89%29.80 "Hg10 mi
3:15 AM72 °FClear.6 mph88%29.81 "Hg10 mi
2:55 AM72 °FClear.6 mph87%29.81 "Hg10 mi
2:35 AM73 °FClear.5 mph86%29.81 "Hg10 mi
1:55 AM74 °FClear.5 mph82%29.80 "Hg10 mi
1:35 AM74 °FClear.3 mph81%29.80 "Hg10 mi
12:55 AM76 °FClear.5 mph76%29.78 "Hg10 mi
12:35 AM76 °FClear.5 mph73%29.78 "Hg10 mi
12:15 AM77 °FClear.6 mph71%29.78 "Hg10 mi
11:55 PM
Sep 30
77 °FClear.7 mph71%29.78 "Hg10 mi
11:35 PM78 °FClear.7 mph69%29.78 "Hg10 mi
11:15 PM78 °FClear.8 mph67%29.79 "Hg10 mi
10:55 PM79 °FClear.8 mph66%29.79 "Hg10 mi
10:35 PM79 °FClear.8 mph65%29.79 "Hg10 mi
10:15 PM80 °FClear.8 mph62%29.79 "Hg10 mi
9:55 PM80 °FClear.7 mph61%29.79 "Hg10 mi
7:50 PM82 °FScattered clouds.3 mph55%29.77 "Hg10 mi
6:50 PM86 °FScattered clouds.7 mph46%29.77 "Hg10 mi
5:52 PM88 °FSunny.10 mph40%29.76 "Hg10 mi
4:50 PM90 °FScattered clouds.8 mph41%29.77 "Hg10 mi
Weather by CustomWeather, © 2014

See weather overviewHow to use our weather pages